RH
19 25 28 29 28 25 23 22 20 20 21 23 24 26 26 27 27 24 22 20 20 25 29 31 30 31 35 36 38 43 43 45 47 48 50 52 54 55 56 56 56 56 54 54 54 55 57 60 63 67 67 68 70 72 73 75 77 79 78 76 67 56 53 55 55 58 59 56 58 60 56 53 51 51 58 64 63 60 62 67 69 66 62 56 50 46
21 28 28 25 25 23 20 20 18 18 19 21 23 25 25 26 25 21 21 20 19 24 28 28 29 30 34 36 37 41 42 43 45 47 49 51 53 53 55 55 55 55 54 55 54 54 56 58 60 63 65 66 69 71 71 73 75 77 78 77 71 63 60 60 57 56 56 50 46 46 44 44 46 48 52 58 60 61 65 71 72 68 61 55 50 46
26 28 25 22 23 21 19 18 18 18 18 20 21 24 25 24 23 21 19 18 18 22 27 28 30 30 32 35 37 38 40 40 42 45 48 50 51 52 54 54 54 55 55 55 54 54 55 55 57 60 63 64 66 68 70 71 70 73 78 79 77 71 64 63 61 57 55 51 43 38 38 41 44 46 49 53 56 62 68 72 73 69 62 56 51 44
30 27 21 21 22 21 21 18 18 18 18 20 21 24 26 21 22 24 20 17 16 20 25 28 30 30 32 36 38 36 36 37 39 43 45 48 50 50 52 54 54 55 55 55 54 54 54 54 55 57 60 63 64 67 70 71 69 70 76 79 78 75 68 64 64 61 58 58 54 47 41 41 46 49 51 57 60 65 71 72 72 70 64 57 52 46
27 23 19 20 21 23 23 20 19 20 20 20 19 22 24 21 22 23 21 18 15 17 22 26 34 36 34 40 40 35 34 34 36 40 42 45 48 49 51 52 53 54 54 55 54 54 54 54 54 55 57 60 63 65 68 69 67 68 71 75 75 75 71 66 65 65 64 67 69 66 61 61 65 66 65 65 65 66 70 69 68 66 62 57 54 49
23 20 19 20 22 23 24 23 20 20 21 21 19 19 20 20 21 21 21 19 19 23 23 26 40 43 35 37 39 35 35 35 35 39 40 42 45 47 50 51 53 53 53 54 53 53 53 53 54 55 55 57 60 62 64 65 64 65 68 71 74 76 74 69 67 67 66 69 72 69 67 67 69 69 64 59 56 57 59 59 60 60 57 54 52 50
20 18 19 21 22 23 24 25 21 19 23 23 19 17 17 19 20 22 21 20 25 28 23 23 36 43 36 33 35 33 34 36 36 37 38 39 41 44 47 49 51 53 53 53 52 52 53 53 53 54 55 56 58 60 61 62 62 64 67 69 72 75 75 73 71 69 65 67 68 62 53 48 49 50 48 47 48 50 51 50 52 53 52 50 47 47
19 20 22 21 22 23 25 26 22 19 23 24 18 15 17 18 19 21 21 22 25 24 23 23 27 38 40 33 29 29 33 37 38 38 37 37 38 41 43 46 48 51 52 52 52 52 52 53 53 54 55 55 57 59 60 61 62 63 64 66 69 72 73 73 72 70 65 61 60 57 51 44 42 41 40 43 48 53 54 51 48 47 46 45 44 44
19 22 23 22 23 24 24 24 21 19 21 21 17 16 18 17 18 20 20 22 22 21 29 29 24 34 42 35 27 27 33 39 40 38 38 38 37 38 40 43 46 49 51 51 50 50 51 52 52 53 54 55 56 58 59 61 61 62 62 64 67 70 71 71 70 69 65 57 52 52 50 46 43 41 40 41 45 52 56 53 48 45 42 41 41 42
20 22 21 21 24 23 22 21 20 21 20 18 17 17 17 16 18 19 19 21 21 24 32 28 23 32 40 38 32 30 34 38 39 37 36 38 37 37 38 40 43 47 49 50 49 48 49 51 52 52 53 54 56 57 58 60 60 61 62 64 66 68 69 69 68 67 63 59 55 52 47 44 43 42 42 43 44 49 55 55 51 46 42 39 38 39
19 19 19 19 21 20 19 20 20 20 18 17 17 17 18 19 19 20 22 23 24 29 30 23 20 26 35 39 35 31 30 31 34 35 35 36 38 38 38 38 41 45 48 49 49 48 47 49 51 52 54 55 56 57 58 59 60 61 62 64 65 66 67 68 68 67 64 59 55 50 46 42 42 41 42 43 45 48 53 55 52 48 43 38 37 39
20 20 21 19 17 17 17 17 19 18 17 18 18 19 22 24 22 21 23 24 30 36 30 21 19 21 33 42 35 26 24 24 28 32 33 35 38 39 38 38 39 42 46 48 49 49 48 49 50 52 53 54 56 58 58 60 61 62 62 63 64 65 66 66 67 69 68 61 53 49 46 42 40 40 41 41 42 44 47 49 50 49 48 44 42 44
24 22 20 18 17 17 17 16 18 19 18 19 20 22 27 29 27 27 28 28 32 37 29 20 17 20 31 39 32 25 22 21 23 28 30 31 36 39 39 39 39 41 45 47 49 49 49 49 50 52 53 54 56 58 59 60 61 62 63 62 64 65 65 65 66 67 67 62 54 49 45 41 39 38 39 38 39 40 40 42 46 46 46 44 41 41
29 24 20 19 18 17 17 17 19 21 21 20 21 24 28 30 31 33 33 27 26 31 25 16 16 21 25 25 23 22 21 19 19 23 27 29 32 37 39 38 39 41 44 46 48 49 49 48 49 51 52 54 56 57 58 59 61 62 63 63 63 64 64 64 64 64 64 62 56 50 44 39 37 36 37 37 36 37 36 36 38 37 37 37 35 34
31 31 24 21 18 15 16 15 15 18 19 19 18 19 24 28 30 33 31 25 26 30 22 14 18 22 21 20 18 18 18 17 17 20 25 28 30 35 37 38 39 41 44 46 48 48 48 48 48 50 52 54 55 57 58 59 60 61 62 63 63 64 65 64 64 64 64 62 58 54 48 41 37 34 34 35 35 35 35 33 32 31 33 35 34 34
23 26 19 17 16 13 13 12 11 14 17 16 15 16 21 24 26 29 29 27 28 28 21 18 23 23 21 22 17 13 16 17 15 20 26 29 31 34 36 37 38 40 42 45 47 48 49 48 48 49 50 52 54 56 58 59 60 61 62 62 62 63 65 65 65 64 62 62 61 57 52 45 40 37 35 37 38 37 36 33 30 28 31 34 34 35
22 21 13 14 17 12 13 12 9 14 18 17 15 16 17 16 15 21 28 28 23 22 24 22 23 21 16 15 13 10 14 16 15 22 29 30 30 33 36 37 37 39 41 43 45 47 48 49 49 49 50 51 53 55 56 58 59 60 60 62 63 63 65 65 65 63 60 61 63 60 55 50 45 41 37 35 35 34 35 34 31 29 31 35 35 35
32 31 17 12 16 13 11 12 9 11 14 16 17 15 13 12 12 17 26 28 21 21 27 23 20 22 19 19 20 12 9 14 15 20 29 31 31 33 35 36 37 38 40 42 44 46 48 48 48 49 50 51 52 54 55 56 57 59 60 60 62 63 64 65 65 64 62 63 64 63 58 54 48 42 36 33 31 31 32 32 31 31 32 34 36 35
38 43 27 13 15 13 10 12 13 12 10 12 14 12 13 16 16 18 23 26 22 21 26 23 19 21 23 25 23 11 7 11 12 17 28 32 32 34 35 35 36 37 39 41 44 47 48 49 49 49 51 51 52 53 54 55 57 59 60 60 61 61 62 63 65 66 66 66 66 65 62 56 50 44 39 35 33 32 32 31 30 30 30 32 35 36
39 47 37 19 14 13 12 13 16 15 11 11 11 10 13 16 17 18 18 22 27 27 25 23 21 23 24 23 17 10 9 10 8 14 27 34 33 34 34 35 37 37 39 41 44 47 48 49 48 48 50 50 51 52 54 57 58 59 61 62 62 62 62 64 66 66 67 67 66 66 66 62 56 49 45 42 38 34 31 30 29 28 27 28 31 34
43 55 52 36 24 19 17 14 15 15 13 13 12 12 13 13 15 16 14 19 30 37 31 23 24 28 22 14 11 10 9 8 8 11 24 34 33 33 33 34 36 38 39 41 43 46 47 48 48 48 49 49 49 52 55 57 58 59 61 62 63 64 65 66 67 67 68 67 67 67 64 60 55 51 50 50 47 40 32 30 29 26 26 26 27 29
47 59 65 57 43 30 20 13 12 12 12 13 12 13 12 13 15 16 18 18 19 32 40 33 29 30 22 11 9 11 9 8 7 7 19 33 32 31 32 33 35 37 37 40 42 44 46 47 48 48 49 50 50 53 55 56 58 60 62 63 64 65 67 67 67 68 68 67 67 66 62 57 54 52 52 54 54 48 40 34 29 27 27 26 25 26
41 56 69 67 51 35 23 15 12 11 11 11 11 12 11 12 14 15 22 21 11 19 32 30 26 27 26 21 13 9 8 8 7 6 17 30 31 29 31 31 34 36 36 39 40 43 45 46 47 48 48 49 51 53 55 56 58 60 61 63 65 66 66 66 66 66 67 68 67 65 63 59 55 51 50 52 52 49 44 39 34 30 28 27 26 25
43 57 65 66 55 36 24 18 13 11 12 11 13 13 10 11 11 12 23 26 16 15 18 19 22 22 28 32 21 12 10 7 7 7 15 27 29 27 29 30 34 35 35 38 39 41 43 45 47 48 48 49 50 52 54 54 56 59 60 63 66 66 66 66 68 68 68 68 68 66 65 61 56 51 49 49 48 45 42 40 38 36 32 29 28 27
52 58 60 72 71 43 24 23 20 15 13 12 13 12 9 11 11 12 21 22 17 17 15 19 25 23 28 34 25 18 15 9 7 9 14 24 26 25 28 30 32 34 34 36 38 40 43 45 47 47 47 48 49 50 51 52 55 57 60 64 65 66 67 68 69 71 70 69 68 69 67 63 58 54 50 46 44 42 40 39 39 37 34 32 30 28
50 54 55 74 84 60 40 42 38 27 19 14 13 12 11 11 9 13 22 20 19 24 19 18 23 23 26 26 18 16 15 9 9 11 15 21 24 25 28 30 31 33 34 35 37 40 41 43 44 45 46 47 47 48 49 50 54 56 59 62 64 65 67 68 69 71 71 70 70 71 70 67 63 58 52 46 42 40 41 40 39 36 34 31 30 29
47 53 53 62 71 63 54 53 44 37 34 25 14 11 13 11 8 15 23 23 27 32 25 20 20 19 20 19 15 18 18 12 13 17 19 21 23 26 28 29 31 32 33 35 36 38 40 41 42 44 44 45 45 46 46 48 51 54 57 60 61 63 65 66 68 69 69 70 71 73 73 70 65 60 55 49 43 40 41 41 41 38 33 30 29 29
53 59 54 52 53 49 43 39 32 32 37 32 20 13 13 12 9 12 18 24 32 32 24 25 25 21 21 21 18 24 29 26 25 28 26 22 22 26 27 28 30 31 32 34 35 37 38 38 40 42 43 44 45 45 45 47 49 50 54 57 58 61 63 64 66 67 68 70 73 75 75 72 67 60 55 52 47 43 41 43 44 41 36 32 30 29
56 61 51 47 50 44 36 32 29 29 31 29 23 14 11 13 12 12 14 22 31 28 21 25 30 25 20 19 19 25 32 33 32 32 27 21 22 26 27 28 30 30 32 33 34 35 34 35 38 40 42 43 43 44 44 46 49 50 52 55 57 59 61 63 66 68 70 71 72 73 74 74 71 64 59 57 53 48 45 45 46 45 41 37 32 28
56 66 53 49 53 44 34 31 30 31 30 26 21 14 12 14 11 10 14 19 26 27 23 27 33 28 19 17 21 24 26 29 31 31 27 24 25 26 25 28 29 29 31 32 32 32 31 33 34 36 40 41 40 41 42 43 46 47 49 51 54 57 61 64 67 69 71 71 69 69 72 74 73 69 65 62 58 54 51 48 49 50 48 42 35 31
58 66 55 51 54 44 34 33 35 36 33 27 21 14 10 11 13 12 12 17 21 21 26 35 38 30 22 23 27 25 24 26 31 34 32 27 25 27 27 27 27 28 31 30 30 32 31 32 34 36 38 38 37 37 37 38 41 44 47 50 53 58 63 67 70 71 72 72 70 70 72 74 73 72 69 66 63 60 56 53 53 54 52 47 41 35
58 65 58 55 59 50 35 34 39 37 32 29 30 28 17 12 15 11 8 20 25 19 26 38 35 26 25 26 27 25 23 26 29 31 32 29 26 26 27 26 25 26 28 29 30 31 31 31 33 34 34 33 34 34 33 35 39 43 46 50 53 58 63 67 70 71 71 71 71 72 72 73 73 73 73 71 70 67 64 62 61 59 57 52 44 38
56 65 64 61 66 56 36 36 43 42 42 44 46 46 35 20 17 15 22 45 52 37 34 36 30 30 30 22 22 27 28 31 35 33 30 31 31 29 27 26 26 26 27 29 30 29 29 30 31 31 30 31 32 31 30 32 36 39 41 44 48 52 56 62 66 67 68 68 70 71 71 72 73 74 75 74 74 74 73 71 68 64 60 54 47 43
56 62 64 63 64 53 40 47 53 49 53 52 44 46 48 41 45 56 64 74 73 62 54 43 30 28 28 25 35 48 50 52 57 52 40 35 35 35 34 32 30 31 31 31 30 29 28 30 31 32 32 30 29 29 32 34 36 37 39 41 44 46 49 56 62 66 68 68 69 69 68 69 71 72 74 74 75 76 76 74 70 66 62 57 52 49
58 60 62 60 54 53 61 72 72 67 65 54 41 44 50 48 55 71 78 77 74 73 72 60 40 28 35 48 57 61 63 63 65 67 61 53 48 47 48 45 39 36 36 35 34 33 33 34 34 35 35 33 32 33 36 39 40 40 40 41 44 47 51 55 61 64 66 66 66 66 66 67 69 70 72 73 75 76 75 74 70 67 64 61 56 51
55 57 61 57 53 60 72 76 74 74 68 55 48 51 53 50 53 68 83 83 74 73 76 73 56 38 43 60 62 59 63 63 63 67 68 65 61 57 57 58 50 44 43 42 40 40 39 37 36 35 35 33 34 37 38 39 39 39 40 41 43 47 53 57 60 62 63 63 63 63 63 65 66 68 69 70 73 75 74 72 69 65 64 63 60 56
50 57 56 54 58 61 61 67 75 78 73 69 67 61 56 57 58 66 86 89 74 69 74 76 71 59 53 58 59 57 60 64 70 72 67 65 66 61 58 60 59 56 53 51 50 50 48 46 43 42 41 40 42 44 43 41 38 37 41 46 49 50 53 57 59 60 61 62 61 61 62 62 63 65 66 67 69 71 71 70 68 65 64 63 61 59
47 57 52 51 59 54 50 70 90 91 88 86 78 60 51 56 54 54 75 88 77 68 70 72 77 76 69 65 62 56 59 73 85 82 71 69 70 64 57 57 59 61 59 55 53 51 49 49 48 47 46 46 48 50 50 49 48 47 50 53 54 54 55 56 57 57 58 59 59 60 60 61 61 61 62 63 64 65 66 66 66 64 63 61 59 55
42 55 58 54 55 47 47 72 94 96 92 86 74 57 52 59 57 54 73 90 80 67 67 70 75 77 74 74 69 62 68 86 94 83 72 73 75 71 65 60 59 61 61 58 56 54 53 52 49 45 41 40 43 46 47 48 48 49 51 52 52 54 54 54 54 54 55 56 57 57 57 58 59 59 59 59 59 60 61 60 60 61 61 60 58 55
48 57 64 60 53 48 52 71 90 96 88 77 68 61 57 60 57 61 83 97 84 70 68 70 74 77 76 76 75 75 81 88 89 82 76 77 79 78 73 68 65 62 59 57 56 56 55 50 46 44 42 42 45 46 44 44 45 44 45 46 48 50 51 51 52 52 53 54 55 56 56 56 57 57 57 57 56 56 57 56 56 58 59 60 59 58
57 56 61 62 54 47 51 65 83 93 86 74 70 66 62 62 65 78 97 99 84 75 72 70 74 77 77 78 80 83 87 86 85 85 81 78 80 81 77 73 70 65 58 53 48 43 40 38 41 49 55 58 58 52 46 44 44 44 44 43 43 45 46 47 47 47 48 49 50 51 52 53 55 55 55 55 54 54 54 55 55 56 56 58 59 59
73 69 69 68 57 50 58 70 84 92 82 72 74 70 63 71 87 96 96 86 77 75 73 74 78 77 76 80 82 83 86 87 88 89 85 83 83 80 73 67 64 63 59 53 44 34 27 27 34 45 52 54 54 51 47 45 45 45 46 45 44 43 43 43 42 42 42 43 43 45 45 46 49 51 53 54 55 55 55 55 55 55 55 56 58 59
80 83 87 83 70 69 81 86 90 96 83 70 77 82 78 87 98 94 85 78 74 69 68 74 81 81 80 82 83 84 85 86 86 85 83 85 87 83 75 66 61 64 64 60 56 49 37 27 26 33 38 38 39 39 38 37 41 45 47 48 47 45 43 43 43 42 40 39 38 38 38 38 41 45 49 52 54 55 57 56 56 56 56 56 57 59
77 86 98 95 82 86 100 95 87 90 81 70 81 92 89 87 85 79 79 81 77 70 66 68 75 82 87 88 87 86 84 84 85 83 78 79 83 85 84 76 68 68 68 65 65 64 58 49 46 49 52 49 44 40 35 33 35 41 48 51 50 47 45 44 44 43 42 41 39 36 35 34 36 39 44 48 52 55 57 58 58 58 58 58 58 59
71 70 81 86 79 80 89 82 69 67 68 70 80 85 79 74 72 70 72 74 75 74 69 64 65 73 83 90 93 91 87 85 86 85 81 78 78 81 86 85 80 76 73 68 68 68 67 66 67 70 69 64 59 56 55 52 47 48 53 56 54 50 48 45 44 43 42 42 41 39 37 36 35 37 40 44 49 53 56 59 60 60 60 60 60 61
51 47 58 74 76 71 70 66 56 55 64 74 78 75 69 67 67 68 68 67 68 69 65 61 61 60 66 80 90 92 91 88 85 86 85 82 78 77 80 83 83 78 71 68 70 74 75 73 72 73 73 70 67 67 72 75 74 71 70 68 62 59 55 50 47 44 42 42 41 40 39 39 38 38 39 43 48 52 55 57 59 60 62 63 63 64
45 45 53 66 71 68 69 69 58 54 63 71 71 69 67 66 63 62 64 66 66 61 56 56 55 49 49 62 78 87 92 91 89 89 87 83 80 78 78 81 81 77 71 68 69 72 75 76 77 77 76 72 68 66 71 80 86 88 87 82 77 71 65 59 53 48 44 44 43 41 40 42 41 41 42 46 52 56 57 59 61 62 63 65 66 69
55 57 62 67 67 65 69 71 61 54 55 59 64 69 69 67 63 57 55 58 60 58 54 51 52 48 43 48 65 81 89 91 92 92 89 85 84 81 79 81 81 79 80 80 78 76 77 82 85 86 84 81 75 70 72 78 84 88 90 91 88 82 74 67 62 57 51 47 46 44 43 43 44 45 47 53 59 64 67 69 70 70 69 69 71 73
62 69 70 70 70 67 67 69 64 59 54 49 56 66 65 62 61 57 54 53 52 51 52 51 53 53 45 43 57 74 81 83 88 91 87 86 87 85 82 81 80 81 84 86 85 85 85 88 90 89 88 88 84 78 78 81 82 81 82 85 88 88 82 73 70 70 64 55 50 47 45 47 49 50 53 58 62 67 73 77 79 80 78 78 78 79
69 78 75 76 83 81 75 70 69 73 70 60 59 65 64 61 61 58 56 53 48 48 54 56 56 55 49 45 53 67 74 76 81 87 87 85 88 89 86 83 81 81 83 83 83 85 88 90 90 88 87 88 86 82 81 83 82 78 76 77 83 89 86 76 74 79 77 68 61 56 54 56 60 60 62 63 63 66 72 77 81 82 82 82 83 83
73 80 77 83 91 86 75 70 70 75 77 70 65 66 65 65 64 59 55 55 54 53 55 58 58 56 52 47 49 61 71 73 77 86 87 84 87 90 88 86 85 82 80 79 77 80 85 87 86 86 87 86 85 83 82 85 84 79 78 82 88 92 91 81 77 83 86 81 75 72 68 67 69 70 70 70 69 70 73 77 81 85 87 88 89 89
Wind_Speed
15 6 8 12 11 12 13 11 8 5 7 7 5 7 8 8 7 9 11 9 9 9 10 15 13 12 18 18 20 30 32 27 27 28 29 31 33 35 36 38 39 42 44 41 40 42 42 43 43 42 41 39 40 39 38 38 37 39 40 40 38 36 35 36 37 36 34 32 30 30 29 28 26 24 22 22 22 20 18 16 13 12 13 16 17 15
13 8 13 16 10 9 10 10 8 7 9 8 6 7 7 8 10 10 11 10 9 9 9 14 13 12 19 20 21 28 26 22 27 28 29 33 35 36 38 40 42 42 42 40 40 41 41 43 44 43 42 42 43 42 40 40 38 39 40 40 39 37 37 37 39 38 36 35 33 32 30 29 28 26 23 23 23 21 19 17 15 13 13 15 16 15
9 12 18 15 7 7 8 10 12 11 11 9 7 6 6 8 8 8 11 9 8 8 7 13 14 10 17 21 21 24 22 24 34 36 35 38 37 36 38 40 42 41 40 40 42 42 42 44 44 43 43 44 44 43 43 41 38 38 39 40 40 38 37 37 39 40 38 36 34 32 30 28 28 27 24 23 23 22 21 19 17 15 13 14 15 15
9 13 15 11 8 10 10 11 14 11 10 9 8 6 7 9 7 7 9 5 5 7 8 14 13 7 13 18 18 26 30 30 37 42 41 42 42 41 43 44 43 42 41 42 44 43 42 43 45 45 45 45 45 45 45 44 40 39 40 40 41 39 37 37 39 40 39 36 34 32 30 28 27 26 24 23 23 23 23 21 19 17 15 14 15 15
10 7 11 13 12 12 12 12 13 10 9 10 12 9 8 12 12 10 7 4 5 7 9 13 8 3 10 17 15 22 28 27 31 36 35 39 44 45 45 45 46 47 46 46 46 46 44 44 46 47 47 46 46 47 47 46 43 41 41 41 41 40 38 37 38 40 39 37 34 32 30 28 27 26 25 25 26 26 25 24 22 21 18 16 15 15
13 8 15 17 15 14 13 12 13 12 8 10 14 14 14 15 14 10 7 4 5 7 7 13 8 3 9 18 18 17 18 19 23 26 28 34 39 40 41 42 45 47 47 48 50 49 47 47 47 48 49 48 49 50 49 47 45 42 42 42 41 41 39 37 37 40 40 39 37 35 34 32 31 30 29 29 28 28 27 25 24 22 20 18 16 16
10 10 12 14 16 16 15 12 14 14 8 8 14 16 17 17 14 10 7 4 4 5 5 12 11 5 6 13 18 19 18 19 21 21 25 34 36 36 40 42 45 46 46 48 49 49 48 47 48 49 50 51 51 52 51 48 46 44 43 42 42 42 41 39 38 39 42 41 39 38 37 35 34 33 32 30 29 29 27 25 23 22 21 20 18 17
10 13 13 13 16 15 13 12 13 15 10 8 11 13 16 16 15 13 9 5 5 5 4 8 8 5 5 11 16 20 20 19 20 20 22 30 35 38 41 43 46 47 48 48 48 49 48 48 50 52 52 52 52 52 51 50 48 46 44 43 44 43 42 41 39 40 42 42 40 39 38 37 35 33 31 30 29 29 28 26 24 22 21 20 19 17
10 15 15 14 14 11 13 13 13 16 13 7 8 10 14 16 15 12 8 6 5 5 5 5 5 3 4 9 13 16 18 17 21 23 21 25 34 39 41 44 47 48 50 51 51 52 51 51 52 53 53 53 52 52 51 51 49 47 45 44 45 45 44 43 42 41 42 42 41 40 39 38 36 32 30 29 29 29 30 29 27 24 23 22 20 19
7 14 17 14 12 10 12 13 12 15 13 8 8 8 10 14 15 10 8 7 5 5 7 7 5 4 4 6 10 11 13 16 19 21 21 25 35 40 41 45 47 47 49 51 53 54 55 54 53 53 52 52 52 52 51 50 50 48 47 46 46 46 45 45 44 43 42 41 41 41 40 39 37 34 31 30 29 29 30 31 29 27 26 24 23 21
7 13 18 15 13 9 10 13 13 14 13 9 9 9 8 9 9 7 6 5 5 5 8 10 8 7 5 4 8 10 13 18 18 17 18 22 33 39 42 45 47 47 48 50 52 54 55 54 52 51 51 51 51 51 51 51 50 50 49 48 48 47 46 45 46 45 43 42 41 41 40 39 38 35 33 32 31 30 29 31 31 29 28 26 25 23
11 11 11 13 19 15 8 10 13 14 14 9 8 9 7 5 5 4 4 5 6 6 7 10 10 9 7 5 6 11 17 21 19 18 19 19 27 37 41 44 47 49 49 50 50 51 52 50 48 50 51 51 50 50 51 51 51 51 51 50 49 47 46 46 46 47 46 44 42 41 41 40 39 36 35 34 33 32 31 30 30 29 29 28 27 25
12 13 8 9 20 21 11 8 9 11 13 10 7 7 6 5 4 5 5 4 5 5 6 9 10 8 7 6 7 13 17 18 17 20 25 23 28 37 41 42 46 48 49 49 49 50 50 50 49 50 52 52 51 51 52 52 52 52 51 50 50 48 47 46 47 47 46 45 43 41 41 41 40 38 36 35 34 33 32 30 29 28 28 28 27 26
7 12 13 12 13 18 16 8 6 8 10 11 9 7 6 5 5 6 4 3 4 5 6 9 8 5 5 6 8 13 15 16 18 25 34 35 35 40 42 43 45 46 47 47 48 49 51 53 52 51 53 53 53 53 53 53 53 53 52 51 50 49 48 47 47 47 47 46 44 42 41 41 41 40 38 36 35 34 33 31 29 28 27 27 26 24
7 8 12 14 7 11 17 12 8 8 9 11 9 7 7 6 6 5 3 4 5 4 5 6 6 6 5 6 10 13 14 19 20 25 37 41 40 44 44 44 44 44 46 47 48 50 53 55 55 53 54 55 55 54 54 54 54 54 53 52 51 50 49 48 48 48 48 47 46 44 42 41 41 40 39 38 37 35 34 33 31 29 28 27 25 23
9 7 6 12 10 8 14 13 11 10 9 10 9 8 9 7 5 4 3 5 5 2 4 5 5 5 5 5 7 9 10 17 20 21 31 37 39 41 41 41 43 45 47 48 48 50 52 54 55 54 55 56 56 56 54 55 55 55 55 53 52 51 50 50 49 49 49 48 47 46 44 43 42 41 40 39 38 37 36 34 32 30 29 28 26 23
6 8 3 9 14 13 14 13 13 12 7 6 9 9 8 6 6 4 4 2 4 4 5 4 3 3 3 5 6 6 6 10 14 15 23 32 38 38 37 40 44 44 47 49 50 52 53 54 55 55 56 56 56 56 56 56 56 56 55 55 53 52 51 51 51 50 50 49 49 48 46 45 43 42 40 39 38 38 37 35 33 31 30 29 27 25
4 6 6 8 14 18 20 16 13 14 9 6 9 9 6 5 4 4 2 3 2 4 5 3 5 3 3 5 6 7 8 7 10 12 17 26 32 34 36 43 46 46 49 51 52 53 54 55 56 56 56 57 57 57 58 57 57 56 55 54 54 53 53 52 52 51 51 50 50 49 48 46 44 42 40 38 38 37 36 36 34 33 31 30 28 27
7 5 7 10 12 14 19 15 10 14 15 10 8 9 8 6 7 6 4 4 4 4 3 4 5 5 5 5 4 7 11 11 10 11 15 20 24 29 36 42 46 48 49 50 50 51 52 54 56 57 57 57 57 57 57 57 56 55 55 54 53 52 51 51 51 51 51 50 50 50 49 47 45 43 40 39 38 37 37 37 35 34 33 31 30 29
7 3 4 7 7 6 10 10 8 12 14 10 7 9 9 6 6 6 3 4 4 4 4 3 4 5 5 5 7 11 14 14 12 9 14 18 23 31 37 41 44 46 46 47 48 50 52 54 57 57 57 57 57 57 56 54 54 54 54 53 52 51 50 50 50 50 50 50 50 50 49 48 46 44 42 40 39 39 38 38 37 36 34 33 32 31
6 2 4 6 7 6 5 9 12 13 10 9 8 9 9 4 4 5 2 3 5 3 4 4 4 6 6 7 12 17 16 15 14 11 13 19 29 37 42 43 45 45 45 48 49 50 52 54 56 57 56 56 56 55 54 53 53 53 53 53 52 51 51 50 50 49 49 49 50 50 50 49 47 45 44 43 42 41 40 39 38 37 35 34 33 32
5 3 5 6 6 6 7 8 13 15 11 9 7 8 10 6 5 6 5 3 4 4 4 5 4 7 8 7 12 17 15 14 17 13 11 20 33 41 44 46 46 47 48 49 49 50 52 53 54 55 54 53 53 53 53 53 53 53 53 53 52 51 51 51 50 49 48 47 48 50 50 50 48 46 45 45 44 43 42 41 39 38 37 36 34 33
7 3 4 7 6 9 16 14 11 15 13 10 7 7 9 7 7 8 7 6 6 4 3 4 3 6 8 7 10 14 14 16 20 15 11 21 36 43 44 44 47 49 52 51 50 51 52 53 54 53 53 53 52 52 52 52 53 52 53 52 52 51 51 50 49 48 47 46 46 48 49 49 49 47 46 46 46 45 44 43 41 39 38 37 35 34
9 3 3 7 7 9 15 14 11 12 13 11 8 7 8 9 9 8 6 6 6 6 5 2 3 6 8 5 7 12 15 16 20 18 16 22 34 42 42 42 46 49 51 51 51 51 51 51 52 52 53 52 51 51 52 52 53 52 52 52 51 51 51 50 49 48 47 46 45 45 47 48 48 48 47 47 46 46 44 43 42 41 40 38 37 36
7 3 4 6 5 5 7 6 7 8 10 9 8 10 11 13 11 6 4 5 5 7 8 5 4 7 7 5 4 9 15 14 14 18 23 26 31 37 38 42 47 49 49 49 49 48 48 48 49 51 52 52 52 51 53 53 53 51 51 50 50 50 50 49 49 48 47 46 45 45 46 47 47 47 48 47 46 46 45 44 43 43 41 40 39 38
5 3 2 3 3 4 5 4 2 2 4 6 11 16 14 15 14 7 5 5 6 6 7 6 6 8 8 8 8 4 12 14 10 14 22 29 35 37 38 41 46 47 47 48 47 45 46 47 49 51 52 53 52 52 52 53 52 51 50 49 49 49 49 49 48 48 47 46 46 46 46 46 45 45 46 46 46 46 45 45 44 43 42 41 40 39
3 3 5 6 8 8 7 10 10 8 8 9 13 18 15 13 14 10 5 5 6 6 5 7 10 9 8 8 9 4 5 10 9 10 14 23 33 38 41 44 45 45 46 47 47 46 47 47 49 51 52 53 53 52 52 52 52 51 50 49 49 49 49 49 48 48 47 47 47 47 48 47 44 43 43 44 45 46 46 46 45 44 43 41 41 40
2 4 7 9 12 14 16 20 21 14 13 16 14 18 18 14 14 12 8 7 7 6 5 9 11 9 7 8 8 3 4 8 9 8 12 23 33 37 41 45 45 43 44 45 46 47 48 48 49 50 51 51 51 50 50 50 50 50 50 49 49 49 49 49 48 48 48 47 47 48 48 47 44 41 40 41 43 45 46 47 46 45 44 42 42 41
2 5 8 9 15 20 20 20 20 16 14 16 16 19 20 16 16 14 9 8 9 8 8 10 11 10 8 8 8 6 4 5 8 11 16 26 35 38 40 43 43 42 43 44 46 48 50 51 50 50 49 49 49 48 47 48 48 48 48 48 48 48 48 48 48 48 48 47 47 47 48 47 45 42 41 41 43 45 47 47 47 46 45 44 43 42
2 5 7 11 18 21 19 16 14 12 11 11 12 19 21 16 17 14 9 9 9 8 9 10 11 10 8 8 7 4 1 3 6 13 17 23 32 36 39 41 41 41 42 44 47 50 52 51 50 49 49 48 48 48 47 47 47 48 48 48 48 47 47 47 47 47 48 47 47 46 45 46 45 43 42 42 43 44 46 47 47 47 47 46 45 43
2 4 8 11 12 14 14 11 11 10 9 8 5 14 22 18 15 13 10 8 6 7 7 7 9 7 6 2 2 5 9 9 7 9 14 21 29 34 36 37 39 41 41 44 47 48 48 48 47 47 48 48 49 48 48 48 47 48 48 48 48 46 45 45 46 46 47 47 46 44 43 43 43 43 43 43 44 44 45 46 47 48 48 47 46 45
3 4 7 8 7 8 10 13 17 15 9 6 12 4 12 17 13 10 8 5 2 5 5 6 6 6 5 2 6 8 10 11 7 6 10 17 25 31 33 34 38 41 43 44 44 43 43 45 45 46 47 49 49 48 48 48 48 48 48 48 47 45 43 42 42 44 45 45 44 43 42 41 40 41 42 43 44 45 45 46 47 48 48 48 47 46
4 4 5 6 5 7 10 16 17 13 5 5 9 13 10 3 6 5 4 7 7 1 3 4 6 6 5 7 10 10 10 10 8 7 10 15 21 26 31 35 37 39 41 43 42 42 44 44 45 47 47 47 47 47 46 46 46 46 45 45 45 44 43 42 41 42 43 43 43 42 40 39 38 38 39 40 42 44 45 46 47 48 48 48 48 47
6 5 5 4 3 7 13 17 12 5 4 1 1 11 16 9 15 15 9 12 13 10 5 2 3 2 3 9 14 12 11 13 15 18 18 20 22 22 23 27 29 31 33 36 38 40 42 42 42 44 44 43 43 43 43 43 42 40 39 40 41 42 43 43 42 43 43 43 42 40 39 38 37 37 37 37 38 41 43 45 46 47 48 48 48 48
8 6 4 3 2 6 9 9 4 1 1 2 1 10 15 11 13 17 17 18 18 16 13 8 6 5 3 10 18 19 20 26 32 34 29 26 30 30 27 25 25 26 26 28 31 32 34 35 36 37 38 39 39 39 40 40 39 37 36 36 38 40 41 42 43 44 44 43 41 40 39 38 37 37 36 36 37 39 41 43 44 46 47 47 48 48
10 6 3 3 4 3 4 4 0 5 4 5 6 12 17 15 12 14 18 17 18 17 14 11 8 6 5 11 18 24 32 38 38 36 32 31 33 36 36 33 30 28 26 23 24 23 23 24 26 28 31 33 33 34 35 36 36 35 34 34 36 39 40 42 43 44 44 43 42 40 39 38 38 38 37 36 38 39 40 41 41 43 44 46 47 48
10 6 3 3 3 1 3 4 3 4 6 7 9 13 12 10 11 8 8 10 15 16 14 11 9 8 6 6 11 24 36 36 26 23 27 30 31 35 38 37 35 34 32 28 25 23 20 20 19 19 22 24 25 26 28 31 33 34 33 32 34 37 39 41 42 43 43 43 42 41 40 39 38 38 38 38 39 40 40 40 39 40 41 43 45 46
10 6 3 3 3 4 4 3 3 3 2 5 11 17 13 8 10 7 2 8 13 17 16 13 11 10 10 9 6 12 28 25 10 10 20 26 29 34 38 37 35 35 33 31 30 28 26 24 22 20 19 20 21 20 21 24 27 30 31 31 32 35 37 40 42 42 42 43 42 41 40 40 40 39 39 39 40 40 39 39 39 39 39 40 41 42
10 6 3 2 3 4 4 2 3 1 1 7 16 19 21 20 13 6 3 8 11 17 19 16 12 11 13 13 12 7 16 15 5 6 16 24 29 33 35 35 34 32 31 29 27 26 25 23 21 20 20 20 19 17 17 19 22 25 26 27 28 32 35 38 39 40 40 40 41 40 40 41 41 41 40 40 39 39 39 38 37 37 38 39 39 39
7 4 2 2 3 5 4 2 1 1 1 11 17 19 27 29 13 2 6 5 8 16 19 16 14 15 17 17 15 11 11 9 6 7 16 25 31 32 32 32 30 29 28 25 23 21 20 19 18 17 16 15 14 14 15 16 18 20 22 23 25 29 31 34 35 35 36 37 38 40 41 41 42 42 41 40 39 38 38 38 38 38 38 39 39 38
2 2 2 2 3 5 4 2 1 0 3 12 19 25 30 22 5 7 6 2 9 15 17 17 16 19 22 23 19 14 13 15 15 16 21 27 31 31 30 29 27 26 25 22 19 17 16 14 13 11 11 9 8 8 11 13 14 15 17 19 21 23 26 29 31 32 33 34 35 37 38 39 41 42 42 40 38 37 38 38 39 39 39 39 39 39
2 2 2 2 3 3 3 2 1 1 4 16 25 28 23 9 4 5 5 5 12 14 14 18 19 21 24 26 23 21 21 23 23 23 24 26 28 29 27 25 25 23 21 19 16 15 14 11 8 6 5 4 2 3 6 9 11 11 12 14 16 18 20 23 27 30 33 34 34 35 35 35 36 37 39 40 39 39 39 39 40 41 40 40 39 39
3 2 2 2 2 2 1 3 3 0 8 20 23 18 14 9 5 5 7 11 17 18 17 21 24 24 24 24 25 26 26 26 26 25 25 24 24 25 24 23 22 21 20 18 16 13 11 8 5 3 4 3 2 1 4 7 8 9 11 12 14 16 17 19 22 25 29 32 33 33 34 34 33 33 34 36 37 39 40 39 40 41 42 41 41 40
4 3 1 2 2 3 2 4 4 3 4 15 15 8 7 9 12 14 14 16 20 22 21 23 25 28 26 23 24 26 26 27 26 24 24 23 21 21 21 21 20 19 19 18 16 12 9 7 5 5 4 4 4 3 2 5 7 9 11 13 14 16 17 18 19 20 23 27 30 31 31 31 31 31 31 31 33 35 38 39 40 41 41 41 42 41
4 3 2 3 2 1 1 2 4 2 2 11 15 13 14 17 19 21 21 20 21 23 24 26 26 28 29 26 25 26 25 25 24 23 24 25 22 19 18 18 19 18 18 17 15 11 8 7 5 5 5 5 4 4 3 3 5 8 10 12 14 16 17 18 19 19 19 21 25 28 29 30 30 30 29 30 30 32 35 38 38 39 40 41 41 41
7 6 2 2 3 2 1 6 12 9 8 15 17 17 20 20 19 21 23 22 21 21 24 26 27 28 29 27 26 26 25 25 25 24 24 26 26 22 18 16 17 17 17 17 15 12 9 7 5 5 6 6 5 5 4 5 6 6 8 11 13 14 16 17 18 19 19 19 20 23 26 29 31 31 29 29 30 30 31 33 34 36 37 39 40 40
8 9 6 4 5 4 1 7 14 11 10 15 18 19 22 21 19 20 21 19 19 20 21 23 24 26 27 27 26 26 24 24 25 24 23 24 26 25 21 17 16 16 17 16 14 11 9 8 8 8 9 8 8 6 7 8 8 8 8 10 12 13 14 15 16 18 18 18 18 19 21 25 29 31 31 29 29 29 30 31 32 33 35 36 37 38
8 10 8 5 7 5 0 7 18 15 4 8 14 17 19 20 21 21 20 17 17 19 21 22 22 24 24 25 25 24 24 24 24 22 21 21 22 23 22 18 16 15 15 15 13 12 10 10 10 10 10 10 9 9 8 9 10 11 11 11 11 13 13 13 14 16 17 17 17 17 18 20 24 28 30 29 28 29 29 30 31 32 32 33 33 33
10 9 7 7 7 5 0 10 22 19 8 7 13 14 15 19 21 21 19 18 17 18 19 20 20 21 21 21 21 22 23 24 23 20 18 18 18 19 19 17 15 13 12 12 12 12 11 10 9 9 9 9 10 11 11 9 11 12 13 12 12 12 13 14 13 12 13 15 16 17 17 18 21 25 27 28 28 28 28 29 30 29 29 28 27 27
9 6 6 7 4 3 3 8 13 9 6 15 24 21 17 19 20 19 18 19 19 18 17 17 18 18 18 18 18 19 20 22 21 18 15 15 15 15 15 15 13 11 11 10 10 10 9 7 7 8 9 9 11 13 13 11 12 13 12 12 12 11 12 13 13 12 11 12 14 15 16 17 19 22 24 25 26 26 27 27 27 26 25 24 23 21
9 6 7 6 5 8 10 11 12 10 10 20 28 28 24 20 18 18 18 17 16 15 14 15 16 17 17 16 16 17 17 18 19 16 14 13 12 12 12 12 11 10 11 11 10 9 7 6 6 7 8 10 11 13 13 13 13 14 12 9 9 10 10 12 13 13 12 11 11 12 14 16 17 19 21 22 24 25 26 26 26 25 24 24 23 22
Wind_Direction
195 191 217 217 217 215 213 215 212 219 236 238 223 223 240 243 245 231 225 221 189 186 199 196 197 178 169 172 172 175 175 176 177 178 182 182 182 184 185 189 191 196 200 199 196 196 198 197 197 198 198 200 200 201 203 203 203 204 203 203 205 205 203 201 199 200 203 202 201 203 205 205 206 206 203 203 207 211 214 216 220 220 215 213 214 211
197 210 227 219 214 211 207 212 212 222 240 246 238 234 244 242 247 242 232 227 193 190 209 197 194 181 172 174 174 174 176 179 180 181 184 183 184 186 186 189 193 196 199 198 197 196 197 197 197 198 199 199 200 200 203 204 204 204 204 205 206 205 204 202 201 202 204 205 205 205 205 205 206 207 206 205 206 210 214 216 222 223 215 210 213 214
200 227 227 211 199 203 196 200 209 222 233 241 247 241 247 245 257 268 256 245 200 194 206 193 193 183 172 175 173 174 179 184 184 185 187 184 183 186 188 189 192 195 196 197 196 195 196 197 197 198 199 200 201 201 202 203 204 204 204 206 207 207 205 202 202 203 205 207 208 207 206 206 207 208 208 208 207 209 214 217 221 224 218 211 214 214
201 228 220 195 189 204 201 197 202 218 230 234 242 231 243 249 246 257 257 255 220 211 195 188 192 173 164 172 174 179 184 187 187 188 188 185 183 186 189 190 191 193 195 196 197 196 196 197 197 198 199 200 201 201 201 202 203 205 205 206 208 208 207 203 202 204 206 207 208 209 209 208 209 210 209 208 206 206 212 217 220 223 220 215 214 214
222 214 171 182 204 206 205 203 196 207 224 229 236 230 235 245 237 239 257 299 288 248 193 174 176 168 167 172 179 185 186 188 189 189 189 187 187 188 189 190 192 193 194 195 197 198 198 198 199 199 199 199 200 200 201 202 205 206 206 207 208 209 209 205 202 204 205 206 208 208 208 208 207 209 209 207 206 206 210 215 219 222 221 217 214 215
236 203 161 181 204 207 210 210 198 199 211 225 233 231 230 242 245 246 265 289 293 279 203 165 161 233 192 177 181 186 186 189 188 188 190 191 190 188 188 190 193 195 196 196 197 197 198 199 199 200 200 200 201 202 203 205 207 208 207 208 208 209 210 206 203 204 205 206 207 207 206 206 206 208 209 209 210 209 211 214 218 221 223 221 218 216
230 209 182 187 195 204 214 215 206 197 199 222 226 228 231 241 249 254 270 259 237 275 225 176 172 201 209 190 184 181 184 187 187 190 193 192 191 190 189 191 192 194 195 197 198 197 198 199 198 199 200 201 203 203 204 205 207 208 207 208 209 209 211 209 206 206 207 207 209 209 208 209 210 211 211 212 213 213 215 217 218 220 223 223 221 218
203 203 202 201 195 201 211 215 207 195 202 220 211 221 234 241 245 246 257 251 238 282 262 201 186 166 193 204 190 181 183 184 186 193 195 193 191 190 191 192 193 194 194 195 196 197 198 199 199 200 201 202 204 203 203 204 205 207 208 209 209 210 211 211 209 207 208 209 210 211 211 212 214 216 215 214 213 214 216 219 221 222 223 223 222 220
187 201 202 206 206 204 208 211 201 196 212 218 188 208 230 242 247 242 247 253 240 274 284 243 210 185 212 211 193 182 181 182 188 194 196 195 192 190 191 192 194 195 195 194 194 196 198 199 200 201 201 202 203 203 203 204 205 207 208 209 209 210 212 213 212 210 209 211 212 213 213 214 216 219 219 216 214 214 216 219 223 224 226 226 226 224
187 202 197 206 220 209 209 213 199 198 214 212 198 212 222 235 245 235 233 242 214 225 254 246 215 215 250 218 191 185 182 186 192 196 197 194 192 191 191 192 194 194 195 195 195 196 198 199 200 200 200 201 201 202 204 204 205 206 207 208 208 210 213 215 214 212 211 212 213 214 215 215 216 218 218 217 216 214 215 218 222 225 227 228 229 228
223 206 195 206 224 210 200 208 204 204 207 197 204 227 232 236 246 236 222 217 198 220 239 235 220 214 247 239 190 187 190 190 191 196 197 193 192 193 192 192 192 193 194 196 196 197 198 199 200 199 199 200 201 202 203 203 205 206 206 207 209 211 213 215 215 215 214 213 215 215 215 215 216 218 217 216 216 214 213 216 220 224 226 228 230 231
232 223 201 204 214 208 194 205 207 203 204 198 192 213 236 252 266 255 210 190 201 230 237 224 218 210 229 254 205 196 201 194 188 190 193 191 192 194 194 192 192 193 194 195 195 197 197 197 198 199 200 200 200 201 201 202 203 205 207 208 209 211 213 215 215 216 216 216 216 216 215 216 217 218 219 218 218 217 215 216 218 222 225 226 229 231
223 230 232 214 210 207 202 206 206 200 201 204 196 194 209 226 247 232 208 199 202 227 235 208 206 214 222 238 213 203 208 200 189 190 192 191 189 193 194 193 193 193 194 194 194 195 195 195 197 198 199 199 200 201 202 202 203 204 207 209 210 211 213 214 215 216 217 217 217 216 216 216 217 219 221 221 221 221 221 220 220 221 224 225 225 226
224 225 226 227 215 203 205 204 194 200 197 197 199 192 191 198 217 223 228 230 195 220 233 195 191 219 231 241 217 208 213 206 194 191 194 193 189 191 194 193 194 194 194 194 194 194 195 195 197 198 198 198 199 201 202 202 203 204 206 209 211 213 215 215 216 216 217 217 218 218 217 217 217 219 220 223 224 224 225 225 225 226 226 224 222 221
225 228 215 221 214 185 204 209 182 181 192 201 197 184 197 197 195 208 208 201 199 228 233 193 188 200 201 222 209 203 213 213 206 191 191 196 192 189 193 193 193 194 194 195 195 195 196 196 197 197 198 198 199 201 202 202 203 204 206 209 212 214 215 216 217 217 217 218 219 220 220 219 218 219 221 223 225 226 226 227 228 229 229 227 223 220
228 239 201 210 215 185 202 208 184 173 188 204 192 185 210 196 165 194 209 182 164 191 227 203 202 204 205 237 219 201 206 215 214 188 181 193 194 188 190 192 193 194 194 195 196 196 198 197 197 197 198 199 199 200 201 202 204 205 206 209 212 215 216 216 217 218 219 220 221 221 222 221 220 221 221 222 224 226 227 228 230 230 230 229 226 223
240 243 206 199 213 212 210 203 189 187 180 187 196 200 199 168 156 201 249 245 137 175 241 224 219 264 271 272 258 224 213 219 216 185 173 188 191 187 188 191 194 195 194 195 196 197 198 197 197 198 199 200 200 200 202 203 205 207 208 210 212 214 215 216 217 219 220 221 221 222 223 222 222 221 222 222 223 224 226 227 229 230 231 231 229 227
345 271 260 223 212 215 217 214 205 197 172 163 200 194 146 139 186 184 212 273 176 193 263 259 224 240 223 247 261 230 225 235 216 188 179 186 186 185 189 192 194 194 194 196 197 198 198 197 197 199 200 201 201 202 203 205 207 208 210 211 212 212 214 216 218 219 220 220 221 222 223 223 223 223 223 223 223 223 224 225 226 228 230 231 231 231
347 297 267 246 221 210 209 212 222 210 194 186 188 170 148 173 202 181 181 212 186 191 265 286 241 216 200 225 244 219 223 235 222 190 181 184 182 184 190 193 195 194 195 196 197 197 198 198 198 199 200 201 202 203 205 206 207 208 210 212 213 214 216 217 218 218 219 220 221 222 223 223 224 224 225 225 224 224 224 224 225 227 229 230 232 232
328 305 276 264 257 237 203 197 217 216 204 191 165 166 177 184 183 178 181 176 161 189 222 255 252 236 226 209 207 221 224 224 222 192 176 182 183 185 189 193 194 193 194 195 196 197 198 198 200 200 200 201 202 204 205 205 206 207 209 211 213 216 216 217 218 219 219 221 222 222 223 224 224 225 226 226 226 225 225 226 226 228 230 230 231 232
336 334 298 298 323 311 224 197 207 212 204 187 172 181 188 166 147 174 197 161 147 162 189 199 236 251 246 211 211 226 224 219 223 201 176 182 183 186 191 192 191 191 192 194 195 197 198 199 200 200 201 202 203 203 203 204 206 207 209 211 213 215 215 216 218 219 221 222 223 223 224 224 225 226 227 227 227 227 228 228 228 229 230 230 231 232
343 348 299 292 331 307 257 237 211 206 208 194 180 190 189 165 145 179 220 216 167 160 168 177 223 254 246 215 214 225 219 217 224 207 176 180 182 188 193 191 189 189 191 194 195 196 197 198 199 200 201 201 201 201 202 203 205 207 209 211 212 214 215 217 218 220 222 223 224 225 225 226 226 226 227 228 228 228 229 230 230 230 230 231 232 232
313 303 275 268 287 269 267 275 241 210 208 201 189 190 189 176 163 180 208 205 186 203 193 165 213 263 254 215 207 224 220 213 219 209 172 176 182 189 194 190 187 189 191 194 195 196 197 198 198 199 199 200 201 201 202 203 205 207 209 211 212 213 216 218 220 221 222 223 226 227 226 226 227 228 229 229 230 231 231 230 230 230 231 232 232 233
318 330 316 295 294 271 267 277 268 229 207 202 200 184 185 194 185 177 185 176 178 206 206 193 248 268 271 235 200 221 223 215 213 199 172 173 184 189 190 186 185 189 191 193 194 195 196 197 197 198 199 200 201 201 202 204 205 207 209 210 212 214 216 218 219 221 222 223 226 227 227 227 228 228 229 230 232 233 233 232 231 230 231 232 233 234
322 358 355 322 310 278 264 269 279 247 210 205 201 190 193 197 186 157 140 159 189 206 188 177 232 253 270 286 270 228 216 212 207 186 170 171 181 186 184 183 185 188 190 192 193 194 194 194 196 197 199 200 200 202 203 205 206 207 209 210 212 214 216 218 218 220 222 224 226 227 227 227 228 229 230 232 233 234 234 234 232 231 231 232 233 235
306 297 299 305 281 247 231 221 254 279 248 229 203 197 198 189 183 166 129 160 202 210 185 177 223 258 284 306 314 257 191 190 187 167 164 171 177 179 179 182 187 187 188 190 191 191 192 194 196 198 200 200 201 203 204 205 206 207 209 211 213 215 216 217 218 219 221 224 225 226 227 227 228 230 232 233 234 235 235 234 234 233 232 232 233 235
291 268 257 244 251 260 269 274 284 310 306 269 217 199 193 184 184 175 144 168 188 181 187 209 224 251 283 295 308 324 153 165 162 142 150 166 174 176 177 182 187 188 187 188 189 190 192 194 197 199 200 201 202 203 205 206 206 207 209 211 214 216 216 217 219 220 222 224 225 226 227 227 229 231 233 235 236 236 235 235 235 235 234 234 234 234
280 289 275 252 260 271 277 279 282 289 285 274 248 207 189 182 183 183 183 186 163 149 200 235 228 229 257 271 275 281 128 138 150 149 151 164 172 176 177 180 185 187 186 187 188 189 192 195 198 199 200 200 201 203 205 206 207 208 209 211 213 215 216 217 219 220 222 224 225 227 228 228 230 233 235 237 237 237 237 236 235 235 236 236 235 235
286 280 280 290 298 291 282 275 272 266 260 268 255 211 190 185 186 189 199 185 156 157 204 228 221 210 226 251 249 233 188 150 161 165 161 164 170 175 177 179 184 184 184 186 187 189 193 197 198 199 199 199 200 202 204 205 206 208 209 210 212 214 216 217 218 219 221 222 226 229 230 230 230 233 235 237 237 238 237 236 235 235 236 236 236 237
318 269 291 313 308 295 286 279 274 265 264 284 255 200 185 192 193 185 190 189 174 181 198 205 207 209 224 233 225 212 122 80 141 152 153 160 167 172 176 178 182 183 184 186 188 191 194 197 198 198 198 199 200 202 204 205 207 208 209 210 212 214 216 216 218 219 220 223 227 230 231 231 232 233 235 236 237 238 238 237 236 235 235 236 237 238
325 292 313 322 309 292 292 313 332 310 282 311 303 191 185 192 196 186 184 189 194 200 189 172 185 220 261 249 131 94 88 81 91 126 145 163 168 169 172 176 179 182 185 188 191 192 194 195 197 197 198 200 203 204 206 208 208 209 209 210 211 212 214 216 217 219 221 223 227 230 230 232 233 234 236 238 238 239 239 238 237 235 235 236 238 239
318 297 308 327 319 291 305 335 337 312 287 1 17 340 206 194 190 186 169 143 203 212 157 128 160 219 255 121 83 69 80 81 67 78 119 155 167 167 167 172 177 181 185 190 192 191 192 195 198 199 201 204 205 206 208 210 210 210 210 211 211 212 213 216 218 220 222 225 228 229 231 233 235 236 238 239 239 239 239 238 237 236 235 236 237 239
288 290 309 337 319 287 314 328 317 307 326 37 18 346 311 222 127 112 93 40 14 7 139 158 192 213 203 127 91 68 61 62 48 46 90 131 153 161 165 169 176 181 185 188 189 190 193 196 200 202 204 205 206 208 210 211 211 212 213 214 215 215 215 218 220 222 225 228 229 230 233 235 237 238 239 240 240 240 239 238 237 237 236 236 238 238
275 282 301 322 304 289 311 319 312 329 36 81 353 359 353 26 83 88 65 24 16 13 353 256 187 169 159 117 99 89 74 65 58 55 73 106 121 130 143 154 164 172 177 180 185 189 194 197 200 202 204 206 208 210 211 212 213 214 215 216 217 217 218 219 220 223 225 228 230 233 236 238 239 240 241 242 242 241 240 239 239 238 237 237 237 237
274 281 287 278 265 285 306 325 330 161 192 252 327 13 6 24 74 77 56 29 14 7 355 354 36 43 82 107 103 102 94 78 65 58 62 82 96 101 106 116 135 150 160 170 180 187 193 196 198 199 201 204 207 209 209 212 215 216 217 218 217 217 218 218 219 222 225 228 231 234 237 238 240 242 243 243 242 241 241 241 240 240 238 238 237 238
260 271 285 272 260 281 325 351 244 216 269 337 8 5 4 5 11 39 51 31 8 7 2 357 23 46 82 100 103 104 94 79 66 57 57 68 82 91 93 95 108 122 132 147 164 174 184 191 196 200 203 207 209 211 213 215 217 219 220 221 220 219 219 219 220 222 225 228 232 235 237 239 240 241 243 243 242 241 241 241 242 242 240 238 238 239
248 254 277 278 264 332 342 314 267 265 312 358 4 344 346 350 333 350 54 37 8 9 5 359 19 35 36 61 99 101 90 78 65 50 51 62 75 84 88 89 94 101 107 116 126 133 144 158 169 182 195 204 208 212 218 221 223 224 225 225 223 222 222 222 224 226 227 229 232 234 236 238 240 241 243 243 242 242 242 242 242 242 241 240 239 239
235 228 246 279 293 349 346 311 323 339 335 349 332 316 310 306 293 282 81 46 9 0 2 7 16 27 27 0 342 89 85 76 60 35 45 59 73 82 86 87 90 95 99 104 110 114 122 132 137 145 159 174 181 189 203 213 219 223 225 225 225 225 225 226 228 230 231 232 234 235 236 238 239 240 242 243 243 244 244 244 244 243 242 241 241 242
236 225 237 268 272 310 325 300 315 18 79 332 320 312 314 318 298 244 108 45 2 347 358 10 14 24 40 18 346 36 84 82 79 42 47 59 71 79 85 86 87 91 94 99 105 109 113 120 126 133 144 154 160 166 179 193 203 211 216 221 224 225 227 230 232 233 234 235 236 238 238 239 238 238 240 242 244 246 246 247 247 246 244 243 243 245
248 239 240 260 261 283 289 281 305 120 332 322 318 312 314 314 306 163 96 44 339 335 351 10 21 26 38 39 32 44 70 80 90 70 60 68 74 77 82 83 83 86 88 92 98 102 108 119 127 131 136 141 150 161 172 181 189 197 204 212 219 223 227 231 234 237 238 238 239 239 239 240 239 239 239 240 242 245 246 247 247 246 245 244 244 245
282 283 264 257 263 279 276 268 293 167 326 324 320 315 313 311 334 82 82 14 314 328 352 15 30 37 41 48 53 52 52 61 72 74 73 77 78 76 80 83 82 82 84 87 91 97 105 115 119 120 121 123 138 164 178 184 188 193 199 206 214 221 227 231 234 237 239 239 240 239 240 241 241 241 241 241 241 242 243 245 245 246 245 245 245 245
17 331 320 299 280 283 271 272 287 172 345 333 325 325 331 345 79 59 43 7 335 337 5 22 30 41 47 53 60 60 58 59 62 65 68 72 76 78 81 86 85 83 83 83 86 91 97 104 105 99 93 95 132 188 204 206 205 205 208 213 218 223 229 233 236 238 240 241 242 242 242 243 243 243 242 241 240 239 238 240 242 244 245 246 245 246
23 334 332 320 307 313 319 9 31 142 330 337 336 341 2 41 67 25 34 29 4 359 16 26 31 40 48 56 59 59 59 58 56 59 61 64 70 75 79 84 85 84 83 83 83 84 87 94 92 58 28 7 349 277 242 239 232 227 226 227 228 230 232 236 238 240 242 243 243 245 245 246 246 245 242 240 239 238 237 237 238 241 243 244 245 245
34 20 345 287 327 6 359 17 46 176 311 352 359 2 18 48 56 45 43 34 11 7 19 28 31 38 46 54 57 55 56 55 52 54 55 56 62 71 77 82 82 82 82 83 85 87 86 83 75 53 28 6 358 346 289 260 246 239 238 237 237 237 238 240 240 240 242 243 243 243 245 247 248 248 245 242 239 237 236 236 236 238 240 242 243 245
358 329 244 243 300 341 247 342 3 209 120 41 37 29 25 39 48 45 44 36 13 7 21 27 28 34 41 47 50 48 49 49 47 47 46 45 50 61 72 78 78 79 83 86 89 92 85 74 59 38 22 10 357 347 334 293 254 242 242 243 243 243 243 245 245 243 242 242 241 240 240 242 245 247 247 245 240 237 235 234 234 236 238 240 242 243
324 326 317 289 310 297 291 14 8 8 51 58 47 33 30 35 38 37 41 38 19 9 19 24 24 28 35 39 42 41 41 41 43 43 41 39 40 46 55 65 66 67 73 79 81 79 72 59 38 18 6 354 340 326 313 298 276 258 252 250 249 248 247 248 250 248 245 243 239 235 234 237 241 243 245 244 242 239 237 236 236 236 237 239 240 242
338 358 11 351 334 321 2 30 13 11 56 62 44 31 29 29 28 25 29 33 24 15 17 19 18 21 26 32 36 36 36 38 39 40 40 38 36 37 42 51 56 56 59 63 63 60 55 42 25 16 7 354 342 323 299 287 282 275 266 259 255 253 251 251 252 251 248 245 241 233 229 232 237 240 241 240 238 236 236 237 237 237 237 238 239 240
355 20 24 351 332 316 251 29 3 349 16 71 46 35 26 14 8 8 11 16 19 15 12 13 12 12 16 25 33 33 32 34 35 37 39 38 37 37 38 42 49 56 61 62 58 52 46 34 21 13 5 357 350 339 317 296 284 278 272 267 263 257 252 250 253 253 249 243 239 234 227 226 232 236 236 233 230 229 230 231 233 236 238 239 240 240
8 27 16 336 318 299 8 21 2 348 326 332 352 6 9 357 353 356 359 359 1 5 9 10 11 14 17 22 30 31 28 26 27 30 35 40 41 39 35 35 43 54 61 63 57 49 41 30 19 9 360 350 343 339 333 316 298 288 278 271 268 263 254 248 248 253 251 242 235 232 227 222 225 230 230 227 224 223 223 225 227 230 235 238 241 243
16 24 360 343 321 305 349 0 352 344 304 303 311 318 329 337 338 342 347 349 349 353 4 10 13 21 25 25 29 32 26 21 20 24 30 37 40 39 35 33 38 47 55 58 54 47 36 22 9 358 349 338 331 332 332 324 317 311 296 275 264 262 257 248 241 238 239 237 230 226 222 218 219 223 223 223 222 221 220 220 222 224 229 233 236 240
11 357 345 338 294 289 307 317 317 310 291 289 294 300 309 320 325 326 332 343 347 347 356 7 11 17 21 22 27 32 27 19 17 19 26 32 35 37 37 32 28 36 46 49 45 35 19 1 352 343 333 326 323 324 325 324 323 322 313 284 260 253 249 245 238 227 220 220 217 212 210 209 209 210 212 215 218 219 218 217 216 219 225 229 231 234